When you browse on this site, cookies collect data to enhance your experience and personalize the content and advertising you see.
Visit our Privacy Policy to learn more. By continuing to use the site, you agree to this use of cookies and data.

Hourly Weather Coleraine

Today, 3 July, Friday

Time Temperature Precipitation Wind Pressure Humidity
00:00 +10°C° 0 mm 4 mps 755 mmHg 96%
01:00 +9°C° 1.2 mm 5 mps 754 mmHg 96%
02:00 +10°C° 1.2 mm 6 mps 753 mmHg 95%
03:00 +10°C° 1.2 mm 7 mps 752 mmHg 95%
04:00 +10°C° 0.6 mm 7 mps 751 mmHg 95%
05:00 +11°C° 0.6 mm 6 mps 751 mmHg 96%
06:00 +11°C° 0 mm 6 mps 750 mmHg 95%
07:00 +13°C° 0.5 mm 5 mps 750 mmHg 96%
08:00 +13°C° 0.5 mm 5 mps 750 mmHg 96%
09:00 +14°C° 0.5 mm 5 mps 750 mmHg 96%
10:00 +14°C° 0.9 mm 5 mps 750 mmHg 96%
11:00 +14°C° 0.9 mm 5 mps 750 mmHg 96%
12:00 +14°C° 0 mm 4 mps 751 mmHg 97%
13:00 +13°C° 1.3 mm 4 mps 751 mmHg 96%
14:00 +12°C° 1.3 mm 4 mps 751 mmHg 96%
15:00 +11°C° 1.3 mm 3 mps 751 mmHg 96%
16:00 +12°C° 0.2 mm 3 mps 751 mmHg 95%
17:00 +13°C° 0.2 mm 2 mps 751 mmHg 94%
18:00 +13°C° 0.2 mm 1 mps 751 mmHg 94%
19:00 +12°C° 0 mm 1 mps 752 mmHg 94%
20:00 +12°C° 0 mm 1 mps 752 mmHg 95%
21:00 +12°C° 0 mm 1 mps 752 mmHg 95%
22:00 +12°C° 0 mm 1 mps 752 mmHg 95%
23:00 +12°C° 0 mm 1 mps 752 mmHg 96%

Tomorrow, 4 July, Saturday

Time Temperature Precipitation Wind Pressure Humidity
00:00 +12°C° 0 mm 1 mps 751 mmHg 96%
01:00 +12°C° 0 mm 1 mps 751 mmHg 96%
02:00 +12°C° 0 mm 1 mps 751 mmHg 96%
03:00 +12°C° 0 mm 1 mps 751 mmHg 96%
04:00 +12°C° 0.2 mm 1 mps 751 mmHg 96%
05:00 +13°C° 0.2 mm 1 mps 751 mmHg 97%
06:00 +13°C° 0.2 mm 1 mps 751 mmHg 97%
07:00 +13°C° 0.2 mm 1 mps 751 mmHg 97%
08:00 +13°C° 0.2 mm 1 mps 751 mmHg 97%
09:00 +13°C° 0.2 mm 1 mps 751 mmHg 96%
10:00 +14°C° 0 mm 2 mps 751 mmHg 95%
11:00 +14°C° 0 mm 2 mps 751 mmHg 94%
12:00 +14°C° 0 mm 3 mps 752 mmHg 93%
13:00 +15°C° 0 mm 2 mps 751 mmHg 92%
14:00 +15°C° 0 mm 2 mps 751 mmHg 91%
15:00 +16°C° 0 mm 2 mps 751 mmHg 90%
16:00 +16°C° 0 mm 2 mps 751 mmHg 91%
17:00 +16°C° 0 mm 3 mps 750 mmHg 91%
18:00 +16°C° 0 mm 3 mps 750 mmHg 91%
19:00 +15°C° 0.6 mm 4 mps 749 mmHg 92%
20:00 +15°C° 0.6 mm 5 mps 747 mmHg 94%
21:00 +15°C° 0.6 mm 6 mps 746 mmHg 95%
22:00 +15°C° 0.6 mm 7 mps 745 mmHg 95%
23:00 +15°C° 0.6 mm 8 mps 744 mmHg 94%

Day after tomorrow, 5 July, Sunday

Time Temperature Precipitation Wind Pressure Humidity
00:00 +16°C° 0.6 mm 9 mps 742 mmHg 94%
01:00 +13°C° 0.2 mm 10 mps 743 mmHg 92%
02:00 +12°C° 0.2 mm 11 mps 744 mmHg 91%
03:00 +10°C° 0.2 mm 12 mps 744 mmHg 89%
04:00 +9°C° 0.1 mm 11 mps 745 mmHg 87%
05:00 +9°C° 0.1 mm 11 mps 747 mmHg 85%
06:00 +8°C° 0.1 mm 10 mps 748 mmHg 83%
07:00 +9°C° 0.1 mm 10 mps 748 mmHg 80%
08:00 +11°C° 0.1 mm 10 mps 748 mmHg 78%
09:00 +12°C° 0.1 mm 10 mps 748 mmHg 76%
10:00 +12°C° 0.3 mm 10 mps 749 mmHg 77%
11:00 +12°C° 0.3 mm 10 mps 749 mmHg 78%
12:00 +12°C° 0.3 mm 9 mps 749 mmHg 79%
13:00 +12°C° 0.5 mm 9 mps 749 mmHg 80%
14:00 +12°C° 0.5 mm 9 mps 748 mmHg 81%
15:00 +12°C° 0.5 mm 8 mps 748 mmHg 82%
16:00 +11°C° 0.5 mm 8 mps 748 mmHg 85%
17:00 +11°C° 0.5 mm 8 mps 749 mmHg 87%
18:00 +11°C° 0.5 mm 8 mps 749 mmHg 89%
19:00 +10°C° 0.1 mm 8 mps 750 mmHg 90%
20:00 +10°C° 0.1 mm 8 mps 751 mmHg 90%
21:00 +10°C° 0.1 mm 8 mps 752 mmHg 90%
22:00 +9°C° 0.1 mm 8 mps 753 mmHg 90%
23:00 +9°C° 0.1 mm 8 mps 753 mmHg 89%

6 July, Monday

Time Temperature Precipitation Wind Pressure Humidity
00:00 +9°C° 0.1 mm 8 mps 754 mmHg 89%
01:00 +8°C° 0.1 mm 9 mps 755 mmHg 88%
02:00 +10°C° 0.1 mm 9 mps 755 mmHg 87%
03:00 +9°C° 0.1 mm 10 mps 756 mmHg 87%
04:00 +10°C° 0.2 mm 9 mps 757 mmHg 88%
05:00 +10°C° 0.2 mm 8 mps 758 mmHg 89%
06:00 +10°C° 0.2 mm 7 mps 759 mmHg 90%
07:00 +11°C° 0.2 mm 7 mps 760 mmHg 88%
08:00 +11°C° 0.2 mm 7 mps 760 mmHg 86%
09:00 +13°C° 0.2 mm 6 mps 761 mmHg 84%
10:00 +12°C° 0.1 mm 7 mps 762 mmHg 81%
11:00 +14°C° 0.1 mm 7 mps 762 mmHg 79%
12:00 +14°C° 0.1 mm 7 mps 763 mmHg 77%
13:00 +14°C° 0 mm 7 mps 764 mmHg 75%
14:00 +14°C° 0 mm 7 mps 764 mmHg 73%
15:00 +14°C° 0 mm 7 mps 765 mmHg 71%
16:00 +14°C° 0 mm 6 mps 765 mmHg 72%
17:00 +13°C° 0 mm 6 mps 765 mmHg 73%
18:00 +13°C° 0 mm 6 mps 765 mmHg 73%
19:00 +12°C° 0 mm 5 mps 765 mmHg 79%
20:00 +11°C° 0 mm 4 mps 765 mmHg 85%
21:00 +10°C° 0 mm 4 mps 766 mmHg 91%
22:00 +8°C° 0 mm 4 mps 765 mmHg 92%
23:00 +8°C° 0 mm 4 mps 765 mmHg 93%

7 July, Tuesday

Time Temperature Precipitation Wind Pressure Humidity
00:00 +8°C° 0 mm 4 mps 765 mmHg 95%
01:00 +8°C° 0 mm 4 mps 765 mmHg 95%
02:00 +8°C° 0 mm 4 mps 765 mmHg 94%
03:00 +7°C° 0 mm 4 mps 765 mmHg 94%
04:00 +8°C° 0 mm 4 mps 765 mmHg 93%
05:00 +10°C° 0 mm 4 mps 765 mmHg 91%
06:00 +10°C° 0 mm 4 mps 764 mmHg 89%
07:00 +11°C° 0 mm 3 mps 764 mmHg 86%
08:00 +12°C° 0 mm 3 mps 764 mmHg 82%
09:00 +13°C° 0 mm 3 mps 764 mmHg 79%
10:00 +12°C° 0.3 mm 3 mps 764 mmHg 84%
11:00 +11°C° 0.3 mm 3 mps 764 mmHg 89%
12:00 +12°C° 0.3 mm 2 mps 764 mmHg 93%
13:00 +11°C° 0.3 mm 3 mps 763 mmHg 94%
14:00 +11°C° 0.3 mm 3 mps 763 mmHg 95%
15:00 +11°C° 0.3 mm 4 mps 762 mmHg 95%
16:00 +11°C° 1.1 mm 4 mps 762 mmHg 96%
17:00 +10°C° 1.1 mm 5 mps 761 mmHg 96%
18:00 +10°C° 1.1 mm 5 mps 760 mmHg 96%
19:00 +10°C° 1.6 mm 5 mps 760 mmHg 97%
20:00 +12°C° 1.6 mm 5 mps 759 mmHg 97%
21:00 +12°C° 1.6 mm 4 mps 759 mmHg 98%
22:00 +13°C° 0.8 mm 4 mps 758 mmHg 98%
23:00 +14°C° 0.8 mm 4 mps 758 mmHg 97%

8 July, Wednesday

Time Temperature Precipitation Wind Pressure Humidity
00:00 +14°C° 0.8 mm 4 mps 757 mmHg 97%
01:00 +15°C° 1 mm 5 mps 757 mmHg 97%
02:00 +15°C° 1 mm 5 mps 756 mmHg 97%
03:00 +15°C° 1 mm 6 mps 756 mmHg 96%
04:00 +15°C° 0.5 mm 6 mps 755 mmHg 96%
05:00 +15°C° 0.5 mm 6 mps 755 mmHg 96%
06:00 +15°C° 0.5 mm 6 mps 755 mmHg 95%
07:00 +15°C° 0.3 mm 6 mps 755 mmHg 96%
08:00 +15°C° 0.3 mm 6 mps 755 mmHg 96%
09:00 +15°C° 0.3 mm 6 mps 755 mmHg 96%
10:00 +15°C° 0.1 mm 6 mps 755 mmHg 94%
11:00 +15°C° 0.1 mm 7 mps 755 mmHg 92%
12:00 +15°C° 0.1 mm 8 mps 755 mmHg 90%
13:00 +15°C° 0 mm 7 mps 756 mmHg 90%
14:00 +15°C° 0 mm 7 mps 756 mmHg 89%
15:00 +14°C° 0 mm 7 mps 757 mmHg 89%
16:00 +14°C° 0 mm 7 mps 757 mmHg 87%
17:00 +12°C° 0 mm 7 mps 758 mmHg 86%
18:00 +11°C° 0 mm 6 mps 758 mmHg 84%
19:00 +11°C° 0 mm 6 mps 759 mmHg 83%
20:00 +12°C° 0 mm 5 mps 760 mmHg 81%
21:00 +12°C° 0 mm 5 mps 760 mmHg 80%
22:00 +11°C° 0 mm 4 mps 761 mmHg 81%
23:00 +11°C° 0 mm 4 mps 761 mmHg 81%
Show more